Location: Mountain View
(37.3861°N, 122.0839°W)
Time: 19:05:47
(UTC-08:00)

BlueWalker 3 - Visible Passes

Search period start: 18 January 2026 00:00
Search period end: 28 January 2026 00:00
Orbit: 451 x 463 km, 53.2° (Epoch: 18 January)

Date Brightness Start Highest point End Pass type
(mag) Time Alt. Az. Time Alt. Az. Time Alt. Az.
18 Jan 2.2 18:52:13 10° SSW 18:55:25 43° SE 18:55:25 43° SE visible
19 Jan 2.7 18:17:07 10° SSW 18:20:18 31° SE 18:21:58 21° E visible
19 Jan 4.7 19:54:43 10° W 19:55:44 16° W 19:55:44 16° W visible
20 Jan 3.2 17:42:08 10° S 17:45:00 23° SE 17:47:54 10° ENE visible
20 Jan 3.1 19:19:05 10° WSW 19:22:11 33° NW 19:22:11 33° NW visible
21 Jan 2.6 18:43:30 10° WSW 18:46:56 44° NW 18:48:32 26° NNE visible
22 Jan 2.1 18:07:59 10° WSW 18:11:30 59° NW 18:14:48 12° NE visible
22 Jan 4.8 19:48:11 10° NW 19:48:33 11° NW 19:48:33 11° NW visible
23 Jan 4.2 19:12:06 10° WNW 19:14:04 14° NNW 19:14:45 13° NNW visible
24 Jan 4.1 18:36:08 10° WNW 18:38:31 17° NNW 18:40:52 10° NNE visible
25 Jan 3.8 18:00:15 10° W 18:02:58 20° NNW 18:05:40 10° NNE visible
